| time (UTC) | temp C | wind direction | speed KPH | gust KPH | rain 1hr cm | rain 24hr cm | rain mn cm | humidity % | barometer mb |
| 20260905154005 | 13 | 104 | 1.6 | 3.2 | 0.00 | 0.08 | 0.00 | 91 | 1017.4 |
| 20260905153504 | 13 | 71 | 1.6 | 3.2 | 0.00 | 0.08 | 0.00 | 91 | 1017.5 |
| 20260905153005 | 13 | 66 | 0.0 | 3.2 | 0.00 | 0.08 | 0.00 | 91 | 1017.5 |
| 20260905152505 | 13 | 65 | 0.0 | 3.2 | 0.00 | 0.08 | 0.00 | 91 | 1017.5 |
| 20260905152005 | 13 | 61 | 1.6 | 3.2 | 0.00 | 0.08 | 0.00 | 91 | 1017.5 |
| 20260905151505 | 13 | 79 | 1.6 | 3.2 | 0.00 | 0.08 | 0.00 | 91 | 1017.5 |
| 20260905151005 | 13 | 82 | 3.2 | 3.2 | 0.00 | 0.08 | 0.00 | 91 | 1017.4 |
| 20260905150504 | 13 | 66 | 3.2 | 4.8 | 0.00 | 0.08 | 0.00 | 91 | 1017.4 |
| 20260905145506 | 13 | 126 | 0.0 | 1.6 | 0.00 | 0.08 | 0.00 | 91 | 1017.4 |
| 20260905145005 | 13 | 126 | 0.0 | 3.2 | 0.00 | 0.08 | 0.00 | 91 | 1017.4 |
| 20260905144505 | 13 | 127 | 1.6 | 3.2 | 0.00 | 0.08 | 0.00 | 91 | 1017.3 |
| 20260905144005 | 12 | 126 | 0.0 | 3.2 | 0.00 | 0.08 | 0.00 | 91 | 1017.3 |
| 20260905143505 | 12 | 126 | 0.0 | 3.2 | 0.00 | 0.08 | 0.00 | 91 | 1017.3 |
| 20260905143005 | 12 | 126 | 0.0 | 3.2 | 0.00 | 0.08 | 0.00 | 91 | 1017.3 |
| 20260905142504 | 12 | 126 | 0.0 | 3.2 | 0.00 | 0.08 | 0.00 | 91 | 1017.3 |
| 20260905141505 | 12 | 126 | 0.0 | 3.2 | 0.00 | 0.08 | 0.00 | 91 | 1017.3 |
| 20260905141005 | 12 | 126 | 0.0 | 3.2 | 0.00 | 0.08 | 0.00 | 91 | 1017.3 |
| 20260905140005 | 12 | 126 | 0.0 | 1.6 | 0.00 | 0.08 | 0.00 | 91 | 1017.2 |
| 20260905135504 | 12 | 126 | 0.0 | 3.2 | 0.00 | 0.08 | 0.00 | 91 | 1017.2 |
| 20260905135005 | 12 | 126 | 1.6 | 3.2 | 0.00 | 0.08 | 0.00 | 91 | 1017.2 |
| 20260905134505 | 12 | 126 | 1.6 | 3.2 | 0.00 | 0.08 | 0.00 | 91 | 1017.2 |
| 20260905134004 | 12 | 86 | 0.0 | 3.2 | 0.00 | 0.08 | 0.00 | 91 | 1017.2 |
| 20260905133504 | 12 | 86 | 0.0 | 3.2 | 0.00 | 0.08 | 0.00 | 91 | 1017.2 |
| 20260905133005 | 12 | 86 | 0.0 | 3.2 | 0.00 | 0.08 | 0.00 | 91 | 1017.1 |
| 20260905132504 | 12 | 86 | 0.0 | 3.2 | 0.00 | 0.10 | 0.00 | 91 | 1017.2 |
| 20260905132004 | 12 | 86 | 0.0 | 0.0 | 0.00 | 0.13 | 0.00 | 91 | 1017.1 |
| 20260905131505 | 12 | 86 | 0.0 | 1.6 | 0.00 | 0.13 | 0.00 | 91 | 1017.2 |
| 20260905130504 | 12 | 86 | 0.0 | 0.0 | 0.00 | 0.15 | 0.00 | 91 | 1017.1 |
| 20260905130004 | 12 | 86 | 0.0 | 0.0 | 0.00 | 0.18 | 0.00 | 91 | 1017.1 |
| 20260905125505 | 12 | 86 | 0.0 | 0.0 | 0.00 | 0.18 | 0.00 | 91 | 1017.1 |
| 20260905125005 | 12 | 86 | 0.0 | 0.0 | 0.00 | 0.18 | 0.00 | 91 | 1017.1 |
| 20260905124505 | 12 | 86 | 0.0 | 0.0 | 0.00 | 0.20 | 0.00 | 91 | 1017.0 |
| 20260905124005 | 12 | 86 | 0.0 | 0.0 | 0.00 | 0.23 | 0.00 | 91 | 1017.0 |
| 20260905123505 | 12 | 86 | 0.0 | 0.0 | 0.00 | 0.23 | 0.00 | 91 | 1017.0 |
| 20260905123005 | 12 | 86 | 0.0 | 0.0 | 0.00 | 0.25 | 0.00 | 91 | 1017.0 |
| 20260905122504 | 12 | 86 | 0.0 | 0.0 | 0.00 | 0.28 | 0.00 | 91 | 1017.0 |
| 20260905122004 | 12 | 86 | 0.0 | 0.0 | 0.00 | 0.30 | 0.00 | 91 | 1017.0 |
| 20260905121505 | 12 | 86 | 0.0 | 0.0 | 0.00 | 0.33 | 0.00 | 91 | 1016.9 |
| 20260905121005 | 12 | 86 | 0.0 | 0.0 | 0.00 | 0.36 | 0.00 | 91 | 1016.9 |
| 20260905120005 | 12 | 86 | 0.0 | 1.6 | 0.00 | 0.38 | 0.00 | 91 | 1016.8 |
| 20260905115505 | 12 | 86 | 1.6 | 3.2 | 0.00 | 0.41 | 0.00 | 91 | 1016.9 |
| 20260905115005 | 12 | 86 | 1.6 | 3.2 | 0.00 | 0.41 | 0.00 | 91 | 1016.8 |
| 20260905114005 | 12 | 86 | 0.0 | 0.0 | 0.00 | 0.41 | 0.00 | 91 | 1016.8 |
| 20260905113505 | 12 | 86 | 1.6 | 3.2 | 0.00 | 0.41 | 0.00 | 91 | 1016.7 |
| 20260905113005 | 12 | 86 | 0.0 | 0.0 | 0.00 | 0.41 | 0.00 | 91 | 1016.7 |
| 20260905112505 | 11 | 86 | 0.0 | 1.6 | 0.00 | 0.41 | 0.00 | 91 | 1016.7 |
| 20260905112004 | 11 | 86 | 0.0 | 0.0 | 0.00 | 0.41 | 0.00 | 91 | 1016.8 |
| 20260905111505 | 11 | 86 | 0.0 | 0.0 | 0.00 | 0.41 | 0.00 | 91 | 1016.8 |
| 20260905111004 | 11 | 86 | 0.0 | 0.0 | 0.00 | 0.41 | 0.00 | 91 | 1016.8 |
| 20260905110505 | 11 | 86 | 0.0 | 3.2 | 0.00 | 0.41 | 0.00 | 91 | 1016.9 |
| 20260905110005 | 11 | 86 | 1.6 | 3.2 | 0.00 | 0.43 | 0.00 | 91 | 1016.8 |
| 20260905103505 | 11 | 86 | 0.0 | 0.0 | 0.00 | 0.43 | 0.00 | 91 | 1016.9 |
| 20260905103005 | 11 | 86 | 0.0 | 1.6 | 0.00 | 0.43 | 0.00 | 91 | 1017.0 |
| 20260905102505 | 11 | 86 | 1.6 | 1.6 | 0.00 | 0.43 | 0.00 | 91 | 1016.9 |
| 20260905101505 | 11 | 86 | 0.0 | 3.2 | 0.00 | 0.43 | 0.00 | 91 | 1016.9 |
| 20260905101005 | 11 | 86 | 0.0 | 0.0 | 0.00 | 0.43 | 0.00 | 91 | 1016.9 |
| 20260905095505 | 11 | 86 | 0.0 | 0.0 | 0.00 | 0.43 | 0.00 | 91 | 1017.0 |
| 20260905095004 | 11 | 86 | 0.0 | 0.0 | 0.00 | 0.43 | 0.00 | 91 | 1017.0 |
| 20260905094505 | 11 | 86 | 0.0 | 0.0 | 0.00 | 0.43 | 0.00 | 91 | 1016.9 |
| 20260905093505 | 11 | 159 | 1.6 | 3.2 | 0.00 | 0.43 | 0.00 | 91 | 1016.9 |
| 20260905093005 | 11 | 164 | 0.0 | 1.6 | 0.00 | 0.43 | 0.00 | 91 | 1016.8 |
| 20260905092505 | 11 | 164 | 0.0 | 0.0 | 0.00 | 0.43 | 0.00 | 91 | 1016.8 |
| 20260905091505 | 11 | 164 | 0.0 | 3.2 | 0.00 | 0.43 | 0.00 | 91 | 1016.7 |
| 20260905091004 | 11 | 164 | 1.6 | 3.2 | 0.00 | 0.43 | 0.00 | 91 | 1016.7 |
| 20260905090505 | 11 | 175 | 0.0 | 3.2 | 0.00 | 0.43 | 0.00 | 91 | 1016.7 |
| 20260905090005 | 11 | 175 | 1.6 | 3.2 | 0.00 | 0.43 | 0.00 | 91 | 1016.6 |
| 20260905085505 | 11 | 227 | 1.6 | 1.6 | 0.00 | 0.43 | 0.00 | 91 | 1016.7 |
| 20260905084505 | 11 | 304 | 0.0 | 1.6 | 0.00 | 0.43 | 0.00 | 91 | 1016.5 |
| 20260905084005 | 11 | 304 | 0.0 | 3.2 | 0.00 | 0.43 | 0.00 | 91 | 1016.5 |
| 20260905083505 | 11 | 304 | 0.0 | 3.2 | 0.00 | 0.43 | 0.00 | 90 | 1016.5 |
| 20260905083005 | 11 | 304 | 1.6 | 3.2 | 0.00 | 0.43 | 0.00 | 90 | 1016.6 |
| 20260905082505 | 11 | 302 | 1.6 | 1.6 | 0.00 | 0.43 | 0.00 | 90 | 1016.5 |
| 20260905082005 | 11 | 302 | 1.6 | 3.2 | 0.00 | 0.43 | 0.00 | 91 | 1016.4 |
| 20260905081505 | 11 | 327 | 0.0 | 0.0 | 0.00 | 0.43 | 0.00 | 90 | 1016.4 |
| 20260905081005 | 11 | 327 | 0.0 | 3.2 | 0.00 | 0.43 | 0.00 | 90 | 1016.5 |
| 20260905080504 | 11 | 327 | 1.6 | 3.2 | 0.00 | 0.43 | 0.00 | 90 | 1016.4 |
| 20260905080005 | 11 | 269 | 0.0 | 3.2 | 0.00 | 0.43 | 0.00 | 90 | 1016.4 |
| 20260905075505 | 11 | 269 | 1.6 | 3.2 | 0.00 | 0.43 | 0.00 | 90 | 1016.3 |
| 20260905075005 | 11 | 269 | 1.6 | 3.2 | 0.00 | 0.43 | 0.00 | 90 | 1016.3 |
| 20260905074505 | 11 | 236 | 3.2 | 3.2 | 0.00 | 0.43 | 0.00 | 90 | 1016.3 |
| 20260905073005 | 11 | 197 | 1.6 | 3.2 | 0.00 | 0.43 | 0.00 | 90 | 1016.2 |
| 20260905072504 | 11 | 196 | 0.0 | 3.2 | 0.00 | 0.43 | 0.00 | 90 | 1016.2 |
| 20260905072005 | 11 | 201 | 1.6 | 3.2 | 0.00 | 0.43 | 0.00 | 90 | 1016.2 |
| 20260905071004 | 11 | 246 | 0.0 | 0.0 | 0.00 | 0.43 | 0.00 | 90 | 1016.2 |
| 20260905070505 | 11 | 246 | 0.0 | 0.0 | 0.00 | 0.43 | 0.00 | 90 | 1016.2 |
| 20260905070005 | 11 | 246 | 0.0 | 0.0 | 0.00 | 0.43 | 0.00 | 90 | 1016.2 |
| 20260905065504 | 11 | 246 | 0.0 | 0.0 | 0.00 | 0.43 | 0.43 | 90 | 1016.2 |
| 20260905065005 | 11 | 246 | 0.0 | 0.0 | 0.00 | 0.43 | 0.43 | 90 | 1016.1 |
| 20260905064505 | 11 | 246 | 0.0 | 3.2 | 0.00 | 0.43 | 0.43 | 90 | 1016.0 |
| 20260905064004 | 11 | 246 | 0.0 | 3.2 | 0.00 | 0.43 | 0.43 | 90 | 1016.0 |
| 20260905063505 | 11 | 246 | 0.0 | 0.0 | 0.00 | 0.43 | 0.43 | 90 | 1016.0 |
| 20260905063005 | 11 | 246 | 0.0 | 0.0 | 0.00 | 0.43 | 0.43 | 90 | 1016.0 |
| 20260905062505 | 11 | 246 | 0.0 | 0.0 | 0.00 | 0.43 | 0.43 | 90 | 1015.9 |
| 20260905062004 | 12 | 246 | 1.6 | 1.6 | 0.00 | 0.43 | 0.43 | 90 | 1015.9 |
| 20260905061504 | 12 | 246 | 0.0 | 0.0 | 0.00 | 0.43 | 0.43 | 90 | 1015.8 |
| 20260905061005 | 12 | 246 | 1.6 | 3.2 | 0.00 | 0.43 | 0.43 | 89 | 1015.8 |
| 20260905060504 | 12 | 225 | 1.6 | 3.2 | 0.00 | 0.43 | 0.43 | 89 | 1015.7 |
| 20260905060005 | 12 | 225 | 1.6 | 3.2 | 0.00 | 0.43 | 0.43 | 89 | 1015.8 |
| 20260905055504 | 12 | 5 | 1.6 | 3.2 | 0.00 | 0.43 | 0.43 | 89 | 1015.9 |
| 20260905055005 | 12 | 7 | 1.6 | 3.2 | 0.00 | 0.43 | 0.43 | 89 | 1015.8 |
| 20260905054505 | 12 | 9 | 0.0 | 0.0 | 0.00 | 0.43 | 0.43 | 89 | 1015.8 |
| 20260905054005 | 12 | 9 | 0.0 | 3.2 | 0.00 | 0.43 | 0.43 | 89 | 1015.9 |
| 20260905053505 | 12 | 5 | 0.0 | 3.2 | 0.00 | 0.43 | 0.43 | 89 | 1015.9 |
| 20260905053005 | 12 | 5 | 0.0 | 0.0 | 0.00 | 0.43 | 0.43 | 89 | 1015.9 |
| 20260905052505 | 12 | 6 | 0.0 | 3.2 | 0.00 | 0.43 | 0.43 | 89 | 1015.8 |
| 20260905052004 | 13 | 5 | 0.0 | 3.2 | 0.00 | 0.43 | 0.43 | 89 | 1015.8 |
| 20260905051005 | 13 | 288 | 0.0 | 3.2 | 0.00 | 0.43 | 0.43 | 89 | 1015.8 |
| 20260905050504 | 13 | 288 | 1.6 | 1.6 | 0.00 | 0.43 | 0.43 | 89 | 1015.8 |
| 20260905050005 | 13 | 288 | 0.0 | 3.2 | 0.00 | 0.43 | 0.43 | 89 | 1015.8 |
| 20260905045504 | 13 | 287 | 0.0 | 0.0 | 0.00 | 0.43 | 0.43 | 89 | 1015.8 |
| 20260905045004 | 13 | 287 | 0.0 | 0.0 | 0.00 | 0.43 | 0.43 | 89 | 1015.8 |
| 20260905044005 | 13 | 288 | 0.0 | 3.2 | 0.00 | 0.43 | 0.43 | 89 | 1015.8 |
| 20260905043505 | 13 | 288 | 1.6 | 1.6 | 0.00 | 0.43 | 0.43 | 89 | 1015.8 |
| 20260905043005 | 13 | 288 | 0.0 | 0.0 | 0.00 | 0.43 | 0.43 | 89 | 1015.8 |
| 20260905042505 | 13 | 288 | 0.0 | 0.0 | 0.00 | 0.43 | 0.43 | 89 | 1015.8 |
| 20260905042005 | 13 | 288 | 0.0 | 1.6 | 0.00 | 0.43 | 0.43 | 89 | 1015.7 |
| 20260905041505 | 13 | 288 | 0.0 | 3.2 | 0.00 | 0.43 | 0.43 | 89 | 1015.7 |
| 20260905041005 | 13 | 288 | 1.6 | 3.2 | 0.00 | 0.43 | 0.43 | 89 | 1015.7 |
| 20260905040504 | 13 | 352 | 0.0 | 1.6 | 0.00 | 0.43 | 0.43 | 88 | 1015.6 |
| 20260905035505 | 13 | 252 | 0.0 | 1.6 | 0.00 | 0.43 | 0.43 | 88 | 1015.6 |
| 20260905035004 | 13 | 251 | 0.0 | 3.2 | 0.00 | 0.43 | 0.43 | 88 | 1015.5 |
| 20260905034504 | 13 | 251 | 1.6 | 1.6 | 0.00 | 0.43 | 0.43 | 88 | 1015.4 |
| 20260905034005 | 13 | 252 | 0.0 | 1.6 | 0.00 | 0.43 | 0.43 | 88 | 1015.4 |
| 20260905033505 | 13 | 252 | 0.0 | 3.2 | 0.00 | 0.43 | 0.43 | 88 | 1015.4 |
| 20260905033005 | 13 | 251 | 3.2 | 3.2 | 0.00 | 0.43 | 0.43 | 88 | 1015.2 |
| 20260905032505 | 13 | 243 | 3.2 | 3.2 | 0.00 | 0.43 | 0.43 | 87 | 1015.1 |
| 20260905032005 | 13 | 225 | 1.6 | 3.2 | 0.00 | 0.43 | 0.43 | 87 | 1015.1 |
| 20260905031505 | 13 | 209 | 1.6 | 3.2 | 0.00 | 0.43 | 0.43 | 87 | 1015.0 |
| 20260905031004 | 14 | 209 | 1.6 | 3.2 | 0.00 | 0.43 | 0.43 | 87 | 1014.9 |
| 20260905030505 | 14 | 209 | 1.6 | 3.2 | 0.00 | 0.43 | 0.43 | 86 | 1014.8 |
| 20260905030005 | 14 | 180 | 1.6 | 3.2 | 0.00 | 0.43 | 0.43 | 86 | 1014.7 |
| 20260905025504 | 14 | 259 | 1.6 | 1.6 | 0.00 | 0.43 | 0.43 | 86 | 1014.7 |
| 20260905025005 | 15 | 0 | 0.0 | 0.0 | 0.00 | 0.43 | 0.43 | 86 | 1014.7 |
| 20260905024505 | 15 | 0 | 0.0 | 0.0 | 0.00 | 0.43 | 0.43 | 85 | 1014.7 |
| 20260905024004 | 15 | 0 | 0.0 | 0.0 | 0.00 | 0.43 | 0.43 | 85 | 1014.7 |
| 20260905023505 | 15 | 0 | 0.0 | 3.2 | 0.00 | 0.43 | 0.43 | 84 | 1014.7 |
| 20260905022505 | 16 | 151 | 0.0 | 1.6 | 0.00 | 0.43 | 0.43 | 84 | 1014.7 |
| 20260905022004 | 16 | 148 | 1.6 | 3.2 | 0.00 | 0.43 | 0.43 | 83 | 1014.7 |
| 20260905021505 | 16 | 238 | 0.0 | 1.6 | 0.00 | 0.43 | 0.43 | 82 | 1014.7 |
| 20260905021005 | 16 | 238 | 1.6 | 1.6 | 0.00 | 0.43 | 0.43 | 80 | 1014.6 |
| 20260905020505 | 17 | 239 | 1.6 | 1.6 | 0.00 | 0.43 | 0.43 | 78 | 1014.4 |
| 20260905020004 | 17 | 250 | 1.6 | 3.2 | 0.00 | 0.43 | 0.43 | 77 | 1014.5 |
| 20260905015504 | 17 | 239 | 1.6 | 1.6 | 0.00 | 0.43 | 0.43 | 77 | 1014.5 |
| 20260905015005 | 17 | 239 | 1.6 | 3.2 | 0.00 | 0.43 | 0.43 | 75 | 1014.5 |
| 20260905014505 | 18 | 269 | 1.6 | 3.2 | 0.00 | 0.43 | 0.43 | 72 | 1014.4 |
| 20260905014004 | 18 | 202 | 1.6 | 3.2 | 0.00 | 0.43 | 0.43 | 73 | 1014.3 |
| 20260905013504 | 18 | 201 | 1.6 | 3.2 | 0.00 | 0.43 | 0.43 | 73 | 1014.3 |
| 20260905013004 | 17 | 214 | 1.6 | 4.8 | 0.00 | 0.43 | 0.43 | 74 | 1014.2 |
| 20260905012504 | 17 | 219 | 1.6 | 4.8 | 0.00 | 0.43 | 0.43 | 74 | 1014.2 |
| 20260905012004 | 17 | 214 | 3.2 | 8.0 | 0.00 | 0.43 | 0.43 | 73 | 1014.1 |
| 20260905011505 | 18 | 233 | 1.6 | 4.8 | 0.00 | 0.43 | 0.43 | 72 | 1014.2 |
| 20260905011004 | 18 | 175 | 1.6 | 8.0 | 0.00 | 0.43 | 0.43 | 72 | 1014.1 |
| 20260905010505 | 18 | 192 | 4.8 | 9.7 | 0.00 | 0.43 | 0.43 | 71 | 1014.2 |
| 20260905010005 | 18 | 179 | 3.2 | 8.0 | 0.00 | 0.43 | 0.43 | 72 | 1014.2 |
| 20260905005505 | 17 | 176 | 3.2 | 8.0 | 0.00 | 0.43 | 0.43 | 74 | 1014.2 |
| 20260905004005 | 17 | 139 | 4.8 | 9.7 | 0.00 | 0.43 | 0.43 | 77 | 1014.3 |
| 20260905003504 | 16 | 174 | 3.2 | 9.7 | 0.00 | 0.43 | 0.43 | 78 | 1014.3 |
| 20260905002505 | 16 | 161 | 4.8 | 9.7 | 0.00 | 0.43 | 0.43 | 78 | 1014.3 |
| 20260905001004 | 17 | 144 | 4.8 | 11.3 | 0.00 | 0.43 | 0.43 | 76 | 1014.3 |
| 20260905000504 | 17 | 210 | 6.4 | 12.9 | 0.00 | 0.43 | 0.43 | 76 | 1014.2 |
| 20260905000005 | 17 | 207 | 8.0 | 14.5 | 0.00 | 0.43 | 0.43 | 76 | 1014.2 |
| 20260904235504 | 17 | 192 | 11.3 | 20.9 | 0.00 | 0.43 | 0.43 | 74 | 1014.0 |
| 20260904235005 | 17 | 199 | 8.0 | 14.5 | 0.00 | 0.43 | 0.43 | 74 | 1014.0 |
| 20260904234505 | 17 | 178 | 9.7 | 16.1 | 0.00 | 0.43 | 0.43 | 73 | 1013.9 |
| 20260904233504 | 18 | 194 | 4.8 | 14.5 | 0.00 | 0.43 | 0.43 | 75 | 1013.9 |
| 20260904233005 | 18 | 245 | 6.4 | 16.1 | 0.00 | 0.43 | 0.43 | 74 | 1013.8 |
| 20260904232505 | 18 | 203 | 4.8 | 12.9 | 0.00 | 0.43 | 0.43 | 73 | 1013.6 |
| 20260904232005 | 18 | 197 | 4.8 | 9.7 | 0.00 | 0.43 | 0.43 | 75 | 1013.6 |
| 20260904231504 | 18 | 201 | 4.8 | 9.7 | 0.00 | 0.43 | 0.43 | 76 | 1013.5 |
| 20260904231004 | 18 | 192 | 3.2 | 11.3 | 0.00 | 0.43 | 0.43 | 74 | 1013.5 |
| 20260904230504 | 18 | 202 | 6.4 | 12.9 | 0.00 | 0.43 | 0.43 | 72 | 1013.5 |
| 20260904225004 | 18 | 173 | 4.8 | 11.3 | 0.00 | 0.43 | 0.43 | 70 | 1013.4 |
| 20260904224504 | 18 | 136 | 4.8 | 8.0 | 0.00 | 0.43 | 0.43 | 68 | 1013.4 |
| 20260904224004 | 18 | 104 | 8.0 | 12.9 | 0.00 | 0.43 | 0.43 | 68 | 1013.4 |
| 20260904223505 | 18 | 173 | 1.6 | 8.0 | 0.00 | 0.43 | 0.43 | 70 | 1013.3 |
| 20260904223004 | 18 | 157 | 3.2 | 8.0 | 0.00 | 0.43 | 0.43 | 70 | 1013.3 |
| 20260904222504 | 18 | 100 | 4.8 | 9.7 | 0.03 | 0.43 | 0.43 | 70 | 1013.3 |
| 20260904222004 | 18 | 152 | 4.8 | 11.3 | 0.03 | 0.43 | 0.43 | 70 | 1013.3 |
| 20260904221505 | 18 | 144 | 3.2 | 8.0 | 0.03 | 0.43 | 0.43 | 71 | 1013.2 |
| 20260904221005 | 18 | 221 | 1.6 | 9.7 | 0.03 | 0.43 | 0.43 | 68 | 1013.3 |
| 20260904220504 | 18 | 131 | 4.8 | 9.7 | 0.03 | 0.43 | 0.43 | 72 | 1013.2 |
| 20260904220004 | 18 | 220 | 1.6 | 8.0 | 0.03 | 0.43 | 0.43 | 73 | 1013.2 |
| 20260904215504 | 18 | 180 | 3.2 | 4.8 | 0.05 | 0.43 | 0.43 | 72 | 1013.2 |
| 20260904215005 | 17 | 212 | 4.8 | 8.0 | 0.05 | 0.43 | 0.43 | 79 | 1013.2 |
| 20260904214505 | 17 | 271 | 3.2 | 4.8 | 0.05 | 0.43 | 0.43 | 78 | 1013.2 |
| 20260904214004 | 16 | 0 | 1.6 | 3.2 | 0.05 | 0.43 | 0.43 | 82 | 1013.2 |
| 20260904213504 | 16 | 268 | 1.6 | 3.2 | 0.05 | 0.43 | 0.43 | 82 | 1013.2 |
| 20260904213005 | 16 | 260 | 1.6 | 3.2 | 0.05 | 0.43 | 0.43 | 83 | 1013.1 |
| 20260904211005 | 16 | 263 | 0.0 | 3.2 | 0.03 | 0.41 | 0.41 | 82 | 1013.1 |
| 20260904210504 | 17 | 263 | 1.6 | 3.2 | 0.03 | 0.41 | 0.41 | 79 | 1013.0 |
| 20260904210005 | 17 | 271 | 1.6 | 1.6 | 0.03 | 0.41 | 0.41 | 77 | 1012.9 |
| 20260904205504 | 17 | 271 | 0.0 | 3.2 | 0.00 | 0.38 | 0.38 | 76 | 1012.9 |
| 20260904204504 | 17 | 333 | 1.6 | 3.2 | 0.00 | 0.41 | 0.38 | 74 | 1012.9 |
| 20260904204004 | 17 | 129 | 0.0 | 4.8 | 0.00 | 0.41 | 0.38 | 73 | 1012.9 |
| 20260904203005 | 17 | 315 | 1.6 | 3.2 | 0.00 | 0.41 | 0.38 | 79 | 1012.9 |
| 20260904202504 | 17 | 5 | 1.6 | 3.2 | 0.00 | 0.41 | 0.38 | 79 | 1013.0 |
| 20260904202005 | 17 | 344 | 1.6 | 3.2 | 0.00 | 0.41 | 0.38 | 81 | 1012.9 |
| 20260904201504 | 16 | 322 | 3.2 | 4.8 | 0.00 | 0.41 | 0.38 | 83 | 1013.0 |
| 20260904200505 | 16 | 235 | 0.0 | 3.2 | 0.00 | 0.43 | 0.38 | 85 | 1013.0 |
| 20260904200005 | 16 | 0 | 3.2 | 4.8 | 0.00 | 0.43 | 0.38 | 84 | 1013.0 |
| 20260904195504 | 16 | 229 | 3.2 | 4.8 | 0.00 | 0.43 | 0.38 | 82 | 1013.1 |
| 20260904195005 | 16 | 254 | 1.6 | 3.2 | 0.00 | 0.46 | 0.38 | 81 | 1013.1 |
| 20260904194505 | 16 | 279 | 1.6 | 3.2 | 0.00 | 0.46 | 0.38 | 81 | 1013.2 |
| 20260904194005 | 16 | 336 | 1.6 | 3.2 | 0.00 | 0.66 | 0.38 | 81 | 1013.2 |
| 20260904193005 | 16 | 353 | 1.6 | 3.2 | 0.00 | 0.74 | 0.38 | 83 | 1013.4 |
| 20260904192504 | 16 | 294 | 0.0 | 3.2 | 0.00 | 0.76 | 0.38 | 83 | 1013.3 |
| 20260904192004 | 16 | 299 | 1.6 | 3.2 | 0.00 | 0.76 | 0.38 | 82 | 1013.4 |
| 20260904191505 | 16 | 334 | 1.6 | 3.2 | 0.00 | 0.76 | 0.38 | 85 | 1013.4 |
| 20260904191004 | 15 | 349 | 1.6 | 3.2 | 0.00 | 0.76 | 0.38 | 85 | 1013.4 |
| 20260904190505 | 15 | 322 | 1.6 | 3.2 | 0.00 | 0.79 | 0.38 | 86 | 1013.4 |
| 20260904190004 | 15 | 316 | 1.6 | 4.8 | 0.00 | 0.79 | 0.38 | 86 | 1013.4 |
| 20260904185505 | 15 | 325 | 3.2 | 4.8 | 0.00 | 0.79 | 0.38 | 87 | 1013.5 |
| 20260904185005 | 15 | 336 | 1.6 | 3.2 | 0.00 | 0.79 | 0.38 | 87 | 1013.5 |
| 20260904183504 | 14 | 333 | 1.6 | 4.8 | 0.00 | 0.81 | 0.38 | 87 | 1013.4 |
| 20260904183004 | 15 | 12 | 1.6 | 3.2 | 0.00 | 0.81 | 0.38 | 87 | 1013.4 |
| 20260904182504 | 15 | 23 | 1.6 | 3.2 | 0.00 | 0.84 | 0.38 | 87 | 1013.4 |
| 20260904182005 | 14 | 331 | 1.6 | 3.2 | 0.00 | 0.84 | 0.38 | 88 | 1013.3 |
| 20260904181504 | 14 | 21 | 3.2 | 3.2 | 0.00 | 0.84 | 0.38 | 88 | 1013.2 |
| 20260904181004 | 14 | 16 | 1.6 | 3.2 | 0.00 | 0.84 | 0.38 | 88 | 1013.2 |
| 20260904175005 | 14 | 309 | 3.2 | 4.8 | 0.00 | 0.84 | 0.38 | 89 | 1013.0 |
| 20260904174504 | 13 | 0 | 1.6 | 3.2 | 0.00 | 0.84 | 0.38 | 90 | 1013.0 |
| 20260904174004 | 13 | 3 | 1.6 | 4.8 | 0.00 | 0.84 | 0.38 | 90 | 1013.0 |
| 20260904173504 | 13 | 16 | 3.2 | 4.8 | 0.03 | 0.84 | 0.38 | 90 | 1013.0 |
| 20260904173004 | 13 | 296 | 3.2 | 4.8 | 0.03 | 0.84 | 0.38 | 90 | 1012.9 |
| 20260904172504 | 13 | 334 | 1.6 | 3.2 | 0.03 | 0.84 | 0.38 | 90 | 1013.0 |
| 20260904172004 | 13 | 325 | 1.6 | 3.2 | 0.03 | 0.84 | 0.38 | 91 | 1013.0 |
| 20260904171504 | 13 | 323 | 1.6 | 3.2 | 0.03 | 0.84 | 0.38 | 91 | 1012.9 |
| 20260904171004 | 13 | 334 | 1.6 | 3.2 | 0.03 | 0.84 | 0.38 | 91 | 1012.8 |
| 20260904170504 | 13 | 304 | 1.6 | 3.2 | 0.03 | 0.84 | 0.38 | 91 | 1012.9 |
| 20260904170004 | 13 | 318 | 1.6 | 3.2 | 0.03 | 0.84 | 0.38 | 91 | 1012.9 |
| 20260904165505 | 12 | 336 | 1.6 | 3.2 | 0.03 | 0.86 | 0.38 | 91 | 1012.9 |
| 20260904165005 | 12 | 331 | 3.2 | 3.2 | 0.03 | 0.86 | 0.38 | 91 | 1012.9 |
| 20260904164504 | 12 | 351 | 1.6 | 3.2 | 0.03 | 0.86 | 0.38 | 91 | 1012.8 |
| 20260904164004 | 12 | 0 | 1.6 | 3.2 | 0.03 | 0.86 | 0.38 | 91 | 1012.7 |
| 20260904163004 | 12 | 0 | 0.0 | 3.2 | 0.00 | 0.84 | 0.36 | 91 | 1012.9 |
| 20260904162504 | 12 | 0 | 1.6 | 3.2 | 0.00 | 0.84 | 0.36 | 91 | 1012.8 |
| 20260904162005 | 12 | 353 | 1.6 | 3.2 | 0.00 | 0.84 | 0.36 | 91 | 1012.7 |
| 20260904161005 | 12 | 235 | 0.0 | 3.2 | 0.00 | 0.84 | 0.36 | 91 | 1012.7 |
| 20260904160504 | 12 | 235 | 0.0 | 3.2 | 0.00 | 0.84 | 0.36 | 91 | 1012.6 |
| 20260904160005 | 12 | 236 | 0.0 | 3.2 | 0.00 | 0.84 | 0.36 | 91 | 1012.6 |
| 20260904155504 | 12 | 236 | 1.6 | 1.6 | 0.00 | 0.84 | 0.36 | 91 | 1012.6 |
| 20260904155005 | 12 | 236 | 0.0 | 3.2 | 0.00 | 0.84 | 0.36 | 91 | 1012.6 |
| 20260904154505 | 12 | 236 | 0.0 | 3.2 | 0.00 | 0.84 | 0.36 | 91 | 1012.6 |